Theta_e
309 309 310 310 310 310 311 312 312 312 313 313 313 314 314 314 314 313 316 315 314 313 313 315 315 317 319 321 320 321 322 324 323 321 322 318 318 316 314 317 315 315 316 312 312
308 308 308 308 308 308 309 310 310 311 311 312 314 313 313 314 317 316 314 313 313 313 314 316 318 318 321 321 320 321 324 323 321 320 320 319 318 319 315 316 316 315 314 308 309
310 310 310 310 309 309 309 308 308 309 310 310 312 313 313 313 318 318 315 312 312 313 314 315 316 319 321 321 321 322 322 321 320 318 317 318 317 317 316 318 319 318 317 310 309
310 310 311 311 311 310 310 309 309 308 308 309 310 313 313 317 320 315 312 311 311 312 313 315 317 319 322 322 320 321 321 319 319 317 317 317 317 317 316 318 316 317 317 313 310
310 310 310 310 311 311 310 310 309 308 308 308 309 313 315 318 318 313 312 311 311 312 314 317 319 321 321 321 319 320 320 318 317 317 316 317 316 317 318 318 317 315 312 313 311
311 310 310 310 310 310 310 310 309 308 308 307 309 313 317 316 313 313 312 311 311 312 314 315 318 318 319 318 320 319 318 318 318 318 317 316 317 315 318 317 317 317 313 312 312
312 311 310 309 309 309 309 309 308 308 307 308 311 313 316 315 312 312 311 310 310 312 314 313 315 318 319 319 317 316 317 319 319 317 316 315 317 317 317 315 315 315 314 313 312
312 311 310 309 309 308 309 308 306 306 307 310 312 315 316 313 313 311 310 310 309 310 312 311 312 317 317 315 316 317 318 319 320 317 316 316 317 317 317 316 315 316 316 313 312
311 310 310 309 308 307 308 306 305 306 309 313 315 317 315 313 314 312 311 312 311 311 310 310 314 317 316 318 319 320 320 320 321 317 317 316 317 317 317 315 315 315 315 315 313
311 310 310 309 307 306 307 305 305 311 314 313 313 317 314 315 314 312 308 311 312 313 314 315 316 317 318 318 319 318 318 319 320 319 316 317 316 316 316 316 316 315 315 315 316
311 310 310 310 309 306 306 306 314 315 313 316 317 317 312 313 312 312 309 310 312 313 316 316 317 317 318 318 319 318 318 317 317 318 316 317 317 317 317 317 317 316 316 315 315
312 311 310 310 310 309 308 310 315 311 310 311 312 312 312 314 315 314 309 313 314 315 316 316 316 317 316 316 317 317 318 317 318 318 314 316 316 316 317 317 316 315 315 315 315
313 312 311 311 311 311 310 311 309 310 312 311 313 312 312 311 313 315 311 314 315 315 316 317 316 314 316 317 317 316 317 318 318 319 314 314 316 316 316 314 314 313 313 313 314
314 313 312 311 313 312 312 307 308 308 311 312 310 312 312 312 311 308 310 313 314 314 315 316 316 316 315 315 315 317 317 318 318 318 319 314 318 317 316 316 314 313 313 314 312
316 314 312 312 312 313 308 307 309 307 315 311 309 308 311 312 310 308 305 308 312 313 314 314 316 314 315 315 316 317 312 315 316 317 319 317 318 317 311 313 313 313 315 316 314
317 315 313 313 312 312 309 307 309 311 314 310 310 311 313 312 310 307 308 308 309 312 312 313 310 313 315 310 312 310 312 312 312 315 319 317 318 317 316 313 313 314 314 315 312
319 317 314 313 314 310 310 311 311 311 310 314 313 312 312 315 313 310 309 309 313 314 315 316 314 312 310 313 310 311 316 318 323 323 322 317 316 317 316 313 313 313 314 314 311
321 319 315 313 312 312 309 312 312 312 314 311 311 313 314 314 314 312 313 313 311 313 315 316 317 314 310 314 317 313 316 321 326 320 320 313 317 315 315 314 312 312 311 311 310
322 318 315 313 313 311 311 313 316 315 313 313 313 312 313 313 313 314 314 315 315 313 314 314 315 309 310 310 314 314 314 315 321 321 321 316 317 317 315 313 312 311 310 310 309
318 316 316 313 314 310 311 315 321 315 313 311 313 313 313 313 313 312 313 314 314 314 313 314 315 314 305 305 307 310 311 315 316 324 321 317 318 317 315 313 312 311 311 312 310
316 317 315 313 310 311 312 313 319 317 313 309 310 312 313 313 313 313 313 314 314 314 313 313 315 313 307 309 312 309 311 310 310 317 319 318 316 312 314 313 313 313 312 313 312
316 319 311 311 312 310 311 313 314 317 311 309 309 309 311 312 312 312 313 313 312 312 312 312 315 316 314 312 309 311 312 313 315 315 314 315 316 313 313 312 311 311 312 312 312
317 315 308 311 317 312 312 315 315 317 316 309 310 310 310 311 310 310 311 312 312 312 312 311 314 317 315 311 306 309 311 311 313 313 315 318 316 313 313 313 312 311 311 311 309
316 316 309 308 312 316 312 315 316 315 315 314 311 311 312 313 312 314 314 313 308 310 311 311 317 315 315 315 313 312 311 311 311 314 314 314 314 313 313 313 313 312 312 312 310
312 317 310 311 311 313 315 314 317 316 315 314 314 314 314 316 316 315 314 313 311 309 311 311 314 314 314 314 314 312 313 313 311 311 312 312 312 312 312 312 313 313 312 310 310
308 314 308 311 313 311 312 315 316 316 316 317 316 316 315 315 316 319 317 315 315 312 311 311 315 314 315 314 313 313 312 313 313 313 313 313 313 312 311 311 311 311 311 310 310
301 300 299 305 310 312 314 314 314 315 315 316 317 316 316 314 313 314 314 314 316 313 311 310 313 315 316 315 315 316 315 314 313 313 314 315 314 314 314 313 313 313 312 311 310
Wind_Speed
11 13 13 13 14 15 15 15 15 16 14 14 9 6 8 5 5 5 8 5 5 3 2 3 4 5 6 3 3 2 5 7 5 5 2 3 8 5 4 7 4 8 7 5 16
11 13 13 13 15 15 15 15 15 15 16 15 11 8 7 7 8 14 9 9 6 4 3 8 5 8 5 3 3 4 6 6 1 4 5 4 9 8 5 11 14 13 11 6 20
12 12 13 14 14 15 16 16 15 15 15 15 14 8 5 4 7 4 16 11 8 5 5 3 4 8 7 4 6 4 6 4 6 6 6 8 9 9 9 14 14 16 14 16 20
14 15 14 14 16 15 16 16 17 16 16 16 15 8 4 2 5 1 12 9 6 6 5 4 5 4 6 6 4 5 11 8 1 3 4 9 6 7 17 18 2 4 8 17 19
14 15 16 17 18 17 18 19 18 17 17 17 15 7 2 7 8 3 10 7 4 3 6 6 8 6 8 4 4 9 9 6 8 6 9 9 13 12 17 17 16 9 6 14 17
17 17 17 17 18 18 19 19 20 20 18 17 12 5 5 10 3 6 9 7 4 5 4 4 4 3 7 6 7 5 8 12 9 12 9 9 14 3 11 9 16 17 16 16 19
18 19 19 18 19 20 19 19 21 21 21 17 8 6 8 12 3 5 8 8 7 3 4 2 1 4 1 6 2 5 9 13 15 11 7 6 10 18 19 9 11 13 15 16 19
18 20 20 19 20 21 21 21 21 22 22 11 5 5 7 6 4 5 6 3 4 3 2 2 1 2 4 2 5 6 6 11 2 10 5 8 18 12 7 10 14 17 17 17 19
20 20 19 20 21 22 23 22 23 21 13 3 4 6 7 3 4 7 6 4 6 4 4 3 2 4 3 7 11 10 11 15 16 14 4 13 15 8 3 9 17 18 19 18 19
18 19 19 21 19 21 24 21 18 6 1 2 3 5 6 3 5 6 4 8 2 6 4 5 5 8 8 10 12 17 17 15 15 9 13 15 21 21 21 20 21 23 23 21 20
18 18 20 23 21 18 20 6 6 5 6 7 2 5 2 3 6 6 6 8 4 6 7 6 8 17 18 18 22 22 21 23 24 8 9 19 23 22 22 21 23 23 22 21 19
18 18 20 24 26 17 7 3 2 1 10 12 13 8 6 3 4 10 11 10 8 14 13 6 16 22 18 10 15 20 20 25 21 7 5 16 22 21 22 25 24 22 22 17 14
14 17 19 21 26 9 6 1 2 1 7 8 8 8 5 12 9 11 16 7 12 16 18 22 22 2 5 14 15 18 21 22 21 13 13 14 19 17 14 15 17 20 18 14 14
17 14 15 19 10 12 4 4 2 2 7 11 8 4 4 4 6 3 11 7 8 13 18 19 20 20 16 20 18 19 12 18 19 11 14 1 17 15 15 18 13 19 18 14 11
19 13 12 9 10 6 8 7 2 2 10 5 5 3 3 7 4 4 2 3 17 12 6 12 8 9 15 15 11 8 2 5 8 12 17 16 15 14 6 9 13 18 19 12 10
22 16 12 6 4 6 6 5 6 7 12 6 6 7 5 6 2 3 4 3 3 9 13 20 2 5 6 2 2 7 2 3 4 5 12 20 18 8 7 6 8 13 13 7 8
26 22 22 10 3 3 3 2 6 12 3 8 9 8 10 9 8 10 7 10 9 6 11 13 23 5 4 6 4 9 6 6 9 6 16 13 12 19 11 13 15 21 15 5 10
30 28 30 20 14 6 3 5 16 9 23 3 1 6 9 11 9 10 8 10 16 15 6 9 11 18 15 18 10 14 10 6 11 15 24 5 13 12 13 12 12 11 3 6 11
30 30 21 31 22 15 5 11 22 17 15 15 7 10 14 9 5 10 12 17 11 21 14 10 14 5 12 4 9 9 8 3 8 1 8 16 26 19 6 10 11 6 7 12 11
20 13 19 28 34 18 6 25 23 17 12 6 26 15 23 23 11 11 15 11 14 16 17 13 16 7 7 3 5 6 2 5 5 6 16 27 24 17 10 14 9 8 11 12 10
14 3 8 31 27 4 6 16 17 20 20 10 21 26 25 22 23 23 18 16 12 10 16 11 8 8 6 12 16 7 7 7 4 10 11 17 12 6 2 5 2 7 8 8 9
4 4 21 39 7 4 9 9 8 22 11 8 9 21 25 23 27 26 28 23 7 5 10 10 3 10 23 11 7 12 19 21 10 16 9 14 27 6 4 5 3 7 7 9 5
3 1 19 23 8 10 12 24 12 17 15 5 11 5 10 15 19 21 23 20 19 9 7 7 5 7 13 10 6 8 15 16 20 13 24 17 26 9 22 17 13 10 10 9 10
3 4 3 3 5 13 18 19 21 16 22 16 8 11 13 15 19 12 14 10 8 7 12 4 5 13 20 22 6 13 18 18 20 16 23 25 28 33 28 23 29 26 20 15 14
3 6 7 6 11 17 10 8 23 17 17 11 7 22 17 10 15 12 23 26 17 5 11 4 10 19 23 28 30 25 20 13 21 23 20 27 23 24 31 35 32 27 23 19 21
4 4 2 7 15 25 27 22 27 24 23 19 22 25 25 22 20 22 20 14 19 3 12 9 7 14 20 25 28 32 29 27 32 27 30 30 30 34 35 37 35 33 33 21 27
5 4 2 4 4 11 19 27 29 28 27 29 29 24 23 27 31 32 25 19 11 10 12 8 7 8 17 23 26 21 33 36 36 38 30 29 38 36 36 36 36 27 27 20 24
Wind_Direction
4 3 1 4 7 11 14 15 16 13 14 10 350 303 267 293 299 247 244 214 207 236 233 185 218 213 208 205 230 256 254 266 279 263 1 143 214 171 359 246 204 198 263 75 152
350 353 352 353 354 358 -0 2 2 2 359 359 353 330 285 272 281 257 243 214 215 223 184 203 206 190 218 222 214 244 262 295 330 277 268 209 234 231 219 217 230 234 222 165 165
338 340 339 342 344 347 348 350 350 349 349 348 346 332 305 271 277 243 210 204 207 204 204 218 236 204 237 232 193 190 252 351 267 255 265 259 242 218 229 249 236 238 223 187 189
328 328 326 327 330 333 338 339 340 340 340 339 336 324 301 211 265 113 183 194 201 185 180 198 205 217 246 224 194 258 244 249 284 228 245 244 271 236 230 240 105 312 280 173 198
316 319 322 325 324 326 329 331 331 331 330 331 328 313 284 238 255 223 193 200 192 176 234 235 241 262 255 244 226 246 276 245 246 226 240 257 248 254 260 250 257 221 224 200 207
318 316 317 315 316 319 321 322 324 322 321 322 315 279 246 253 259 207 196 195 195 215 227 237 298 296 292 260 233 354 277 266 257 250 242 234 258 253 254 254 243 236 225 225 216
317 316 313 314 313 312 314 316 316 315 314 315 292 213 244 256 224 201 193 199 204 216 233 215 247 243 358 258 277 282 282 272 247 242 242 206 251 234 251 220 223 230 234 229 224
313 311 313 313 315 312 311 314 313 311 310 303 236 191 263 231 187 192 174 150 157 166 157 159 199 249 242 29 239 260 257 271 217 180 185 198 266 247 238 196 232 244 237 232 229
312 312 315 315 316 314 310 315 312 306 303 249 182 229 260 162 187 190 188 195 139 105 92 119 226 265 196 242 268 209 267 268 263 191 163 210 267 286 195 237 263 260 256 241 231
312 317 322 319 318 310 308 318 308 292 255 179 252 233 184 196 151 164 177 163 163 146 158 203 225 244 223 233 259 290 287 270 261 197 217 234 249 271 275 271 271 268 262 258 250
307 314 321 325 333 325 322 343 253 215 205 236 290 271 161 109 150 178 164 163 174 219 225 191 229 241 254 246 250 274 283 276 272 272 219 246 260 269 275 277 273 275 273 264 252
321 312 317 325 331 324 326 277 82 327 292 243 252 261 227 188 232 192 167 186 191 225 220 216 239 254 277 285 270 264 265 267 273 287 213 271 270 268 268 268 274 274 270 272 262
297 315 321 324 327 328 305 283 225 162 249 235 227 243 235 182 234 218 182 204 221 237 228 241 254 112 266 261 253 247 250 260 272 296 231 273 275 259 249 257 261 268 264 265 251
281 301 322 325 324 333 289 294 216 156 264 231 202 185 165 193 251 134 203 215 208 247 243 253 264 260 254 255 253 261 261 253 268 280 274 82 287 280 286 264 246 268 271 262 215
272 279 300 318 313 321 326 316 254 262 275 102 162 110 153 218 56 170 152 185 239 214 189 238 229 222 234 244 237 239 348 249 256 257 279 261 270 277 171 263 232 248 266 269 181
263 258 262 287 250 254 303 312 297 236 249 194 163 181 172 202 200 99 182 226 333 243 235 257 92 240 234 112 238 124 219 221 229 267 257 260 243 283 217 214 235 251 243 266 186
257 245 238 217 280 310 189 236 250 235 112 196 215 193 206 195 202 191 180 188 189 185 219 227 228 195 188 208 168 204 213 271 256 225 264 280 260 255 271 246 254 263 268 186 173
259 244 231 220 217 222 167 198 243 240 229 48 156 204 218 190 223 202 196 231 225 240 282 249 245 192 197 220 251 198 214 222 267 266 282 112 263 265 234 232 246 252 224 197 190
270 245 218 212 210 187 212 216 241 231 252 256 233 251 226 229 249 200 222 237 225 198 214 222 249 126 179 183 188 167 201 254 273 237 280 267 267 262 163 202 230 226 225 227 206
252 229 222 202 202 177 181 242 247 219 269 262 239 228 250 235 205 207 234 234 232 198 223 257 259 201 125 189 222 237 92 189 201 259 259 278 278 277 243 229 212 233 238 250 216
254 247 211 188 171 185 203 229 260 261 258 236 255 255 256 253 249 232 241 257 218 204 208 236 231 234 140 201 217 188 223 220 293 239 251 270 268 54 5 151 270 224 243 243 217
211 228 168 167 180 189 225 219 232 265 273 271 272 262 265 263 257 250 250 251 195 163 201 216 266 232 235 245 256 255 232 218 219 229 235 254 271 146 142 108 189 242 218 263 247
243 221 180 180 203 215 236 239 242 255 243 222 242 255 314 292 293 277 270 276 272 196 209 178 208 237 259 244 169 211 228 240 237 249 245 243 255 235 274 284 278 249 230 217 218
266 241 177 235 255 224 222 228 239 238 249 242 204 280 266 256 254 267 278 297 18 5 8 335 190 226 238 245 262 217 227 224 227 234 246 244 262 280 282 280 275 272 267 251 238
242 245 186 198 232 236 222 220 240 240 224 207 226 209 218 240 246 237 244 257 251 211 286 305 251 251 254 265 273 275 267 227 230 240 246 263 263 266 277 273 273 278 276 283 275
293 298 268 287 218 214 226 228 236 237 235 230 227 225 218 226 219 248 234 228 242 195 234 217 252 244 246 250 261 266 264 267 264 262 260 255 261 261 259 269 274 270 276 276 274
348 340 13 289 277 253 230 227 231 238 239 237 250 242 234 223 226 235 244 255 210 192 191 191 207 212 243 238 240 248 242 244 248 251 251 251 248 259 264 261 259 276 275 273 274